Location: Unspecified
(0.0000°N, 0.0000°E)
Time: 23:37:49
(UTC+00:00)

A-11 Canister half - Pass Details

Date: 09 February 2023
Orbit: 1526 x 1682 km, 47.3° (Epoch: 29 March)

Event Time Altitude Azimuth Distance (km) Brightness Sun altitude
Rises 15:20:05 0° 277° (W) 4,852 12.3 41.8°
Reaches altitude 10° 15:25:20 10° 254° (WSW) 3,896 12.3 40.6°
Maximum altitude 15:30:09 14° 225° (SW) 3,572 12.0 39.4°
Drops below altitude 10° 15:35:03 10° 195° (SSW) 3,936 11.7 38.3°
Sets 15:40:30 0° 172° (S) 4,934 11.8 37.0°
